Total_Precipitation_Accumulation
0.00 0.00 0.00 0.02 0.01 0.04 0.06 0.07 0.10 0.13 0.20 0.21 0.22 0.19 0.14 0.12 0.09 0.08 0.06 0.04 0.02 0.01
0.00 0.00 0.00 0.00 0.02 0.04 0.05 0.08 0.13 0.15 0.17 0.19 0.18 0.18 0.16 0.13 0.10 0.07 0.05 0.03 0.00 0.00
0.00 0.00 0.00 0.00 0.01 0.02 0.05 0.06 0.07 0.08 0.09 0.10 0.09 0.09 0.09 0.10 0.09 0.07 0.07 0.05 0.01 0.00
0.00 0.00 0.00 0.00 0.01 0.03 0.04 0.04 0.04 0.05 0.05 0.04 0.03 0.02 0.02 0.02 0.02 0.02 0.04 0.07 0.09 0.08
0.00 0.00 0.01 0.02 0.01 0.02 0.02 0.01 0.01 0.00 0.01 0.00 0.00 0.01 0.01 0.02 0.02 0.02 0.03 0.06 0.09 0.13
0.00 0.00 0.00 0.01 0.02 0.02 0.02 0.01 0.01 0.00 0.00 0.00 0.00 0.00 0.00 0.01 0.03 0.05 0.07 0.09 0.12 0.13
0.01 0.01 0.01 0.01 0.01 0.01 0.01 0.01 0.01 0.01 0.01 0.00 0.00 0.01 0.02 0.03 0.06 0.07 0.07 0.08 0.12 0.16
0.02 0.01 0.01 0.00 0.00 0.00 0.00 0.00 0.00 0.01 0.01 0.02 0.02 0.05 0.07 0.08 0.10 0.14 0.17 0.20 0.23 0.21
0.01 0.00 0.00 0.00 0.00 0.00 0.01 0.01 0.04 0.07 0.09 0.12 0.16 0.26 0.23 0.19 0.17 0.17 0.20 0.19 0.15 0.10
0.02 0.04 0.04 0.05 0.04 0.03 0.02 0.03 0.05 0.16 0.31 0.43 0.55 0.60 0.44 0.30 0.26 0.20 0.13 0.09 0.07 0.04
0.09 0.07 0.28 0.28 0.21 0.31 0.23 0.16 0.23 0.27 0.31 0.40 0.43 0.37 0.25 0.18 0.14 0.10 0.07 0.04 0.02 0.01
0.09 0.10 0.13 0.14 0.22 0.32 0.31 0.39 0.47 0.45 0.36 0.30 0.21 0.14 0.10 0.07 0.06 0.05 0.03 0.00 0.00 0.00
0.06 0.14 0.22 0.18 0.37 0.47 0.36 0.28 0.29 0.28 0.20 0.13 0.08 0.06 0.04 0.03 0.04 0.02 0.00 0.00 0.00 0.00
0.18 0.24 0.30 0.26 0.29 0.27 0.25 0.16 0.11 0.12 0.08 0.04 0.02 0.01 0.00 0.00 0.00 0.00 0.00 0.00 0.00 0.00